Back to catalog

DELTA 2 R/B(2)

AliveHEO
NORAD 23018·ROCKET BODY·🇺🇸 United States

Launched Feb 19, 1994 from Cape Canaveral Space Force Station

Loading…

Next Passes (next 24 hours)

TLE

FreshSource: Space-Track

Epoch: Sep 12, 2026, 08:34 UTC

1 23018U 94013C   26255.35759869 -.00000584  00000-0  00000-0 0  9991
2 23018  24.2529 213.3396 6531669 254.0774  29.3761  2.02386613240513

Track DELTA 2 R/B(2) in real time with AllMySat

Download on the App Store